FW6938 Weather Reports


time (UTC)temp
C
wind
direction
speed
KPH
gust
KPH
rain 1hr
cm
rain 24hr
cm
rain mn
cm
humidity
%
barometer
mb
20220124103010 -5 0 0.0 0.0 0.00 0.00 0.00 84 1022.7
20220124101520 -5 0 0.0 0.0 0.00 0.00 0.00 85 1023.0
20220124100011 -5 0 0.0 1.6 0.00 0.00 0.00 85 1023.1
20220124094516 -5 0 0.0 3.2 0.00 0.00 0.00 86 1023.2
20220124093012 -5 0 0.0 0.0 0.00 0.00 0.00 85 1023.5
20220124091523 -5 0 0.0 3.2 0.00 0.00 0.00 87 1023.5
20220124090023 -5 180 0.0 3.2 0.00 0.00 0.00 86 1023.6
20220124084518 -5 0 0.0 1.6 0.00 0.00 0.00 85 1024.0
20220124083016 -5 0 0.0 3.2 0.00 0.00 0.00 86 1024.0
20220124081523 -5 0 0.0 0.0 0.00 0.00 0.00 86 1024.3
20220124080018 -5 0 0.0 0.0 0.00 0.00 0.00 86 1024.5
20220124074525 -5 0 0.0 0.0 0.00 0.00 0.00 86 1024.6
20220124073023 -5 0 0.0 0.0 0.00 0.00 0.00 84 1024.7
20220124071542 -5 0 0.0 0.0 0.00 0.00 0.00 84 1024.7
20220124070026 -5 0 0.0 1.6 0.00 0.00 0.00 85 1025.0
20220124064526 -5 0 0.0 1.6 0.00 0.00 0.00 84 1025.0
20220124063031 -4 0 0.0 0.0 0.00 0.00 0.00 84 1025.1
20220124061510 -4 0 0.0 3.2 0.00 0.00 0.00 84 1025.3
20220124060036 -4 0 0.0 0.0 0.00 0.00 0.00 85 1025.4
20220124054521 -4 0 0.0 0.0 0.00 0.00 0.00 82 1025.5
20220124053013 -3 0 0.0 0.0 0.00 0.00 0.00 83 1025.3
20220124051513 -3 0 0.0 0.0 0.00 0.00 0.00 83 1025.3
20220124050012 -3 0 0.0 1.6 0.00 0.00 0.00 82 1025.5
20220124044510 -3 0 0.0 0.0 0.00 0.00 0.00 82 1025.4
20220124043104 -3 0 0.0 3.2 0.00 0.00 0.00 83 1025.5
20220124041623 -3 0 0.0 0.0 0.00 0.00 0.00 82 1025.9
20220124040012 -3 0 0.0 0.0 0.00 0.00 0.00 81 1025.7
20220124034511 -3 0 0.0 0.0 0.00 0.00 0.00 82 1025.8
20220124033019 -3 0 0.0 0.0 0.00 0.00 0.00 80 1025.9
20220124031510 -3 0 0.0 1.6 0.00 0.00 0.00 80 1026.0
20220124030034 -3 0 0.0 0.0 0.00 0.00 0.00 79 1025.9
20220124024510 -2 0 0.0 0.0 0.00 0.00 0.00 78 1025.8
20220124023019 -2 0 0.0 0.0 0.00 0.00 0.00 77 1025.7
20220124021525 -2 0 0.0 0.0 0.00 0.00 0.00 77 1025.9
20220124020052 -2 0 0.0 0.0 0.00 0.00 0.00 75 1025.9
20220124014510 -1 0 0.0 1.6 0.00 0.00 0.00 73 1025.7
20220124013014 -1 0 0.0 0.0 0.00 0.00 0.00 71 1025.7
20220124011528 0 0 0.0 3.2 0.00 0.00 0.00 69 1025.8
20220124010010 0 0 0.0 0.0 0.00 0.00 0.00 68 1025.8
20220124004510 0 0 0.0 3.2 0.00 0.00 0.00 66 1025.9
20220124003014 1 0 0.0 3.2 0.00 0.00 0.00 64 1025.9
20220124001509 1 0 0.0 6.4 0.00 0.00 0.00 63 1026.0
20220124000101 2 0 0.0 4.8 0.00 0.00 0.00 62 1026.0
20220123234541 2 252 0.0 6.4 0.00 0.00 0.00 61 1025.9
20220123233027 2 0 0.0 8.0 0.00 0.00 0.00 61 1026.0
20220123231528 2 0 1.6 9.7 0.00 0.00 0.00 60 1026.1
20220123230044 2 0 3.2 9.7 0.00 0.00 0.00 58 1026.3
20220123224515 2 0 1.6 11.3 0.00 0.00 0.00 58 1026.4
20220123223009 2 0 0.0 4.8 0.00 0.00 0.00 60 1026.6
20220123221513 2 0 0.0 9.7 0.00 0.00 0.00 60 1026.7
20220123220019 2 0 0.0 12.9 0.00 0.00 0.00 63 1026.6
20220123214537 2 0 0.0 4.8 0.00 0.00 0.00 63 1026.5
20220123213011 2 0 1.6 11.3 0.00 0.00 0.00 62 1026.7
20220123211536 2 238 6.4 12.9 0.00 0.00 0.00 62 1026.8
20220123210011 2 235 3.2 8.0 0.00 0.00 0.00 62 1026.8
20220123204510 2 0 1.6 11.3 0.00 0.00 0.00 62 1027.1
20220123203013 2 144 1.6 8.0 0.00 0.00 0.00 63 1027.1
20220123201514 1 281 3.2 9.7 0.00 0.00 0.00 63 1027.4
20220123200014 1 191 1.6 6.4 0.00 0.00 0.00 64 1027.7
20220123194535 1 0 1.6 6.4 0.00 0.00 0.00 65 1027.8
20220123193021 1 93 1.6 6.4 0.00 0.00 0.00 64 1028.2
20220123191510 1 194 1.6 8.0 0.00 0.00 0.00 67 1028.4
20220123190047 1 237 3.2 9.7 0.00 0.00 0.00 67 1028.8
20220123184534 0 194 3.2 8.0 0.00 0.00 0.00 69 1029.0
20220123183033 0 236 0.0 4.8 0.00 0.00 0.00 71 1029.3
20220123181510 0 236 1.6 6.4 0.00 0.00 0.00 71 1029.3
20220123180014 0 0 0.0 4.8 0.00 0.00 0.00 70 1029.7
20220123174510 0 59 0.0 4.8 0.00 0.00 0.00 71 1029.6
20220123173040 -1 0 0.0 4.8 0.00 0.00 0.00 72 1029.5
20220123171520 -2 103 0.0 4.8 0.00 0.00 0.00 77 1029.5
20220123170014 -3 103 1.6 3.2 0.00 0.00 0.00 79 1029.6
20220123164523 -3 150 0.0 3.2 0.00 0.00 0.00 86 1029.8
20220123163039 -5 150 0.0 3.2 0.00 0.00 0.00 90 1029.9
20220123161517 -6 0 0.0 0.0 0.00 0.00 0.00 87 1029.6
20220123160033 -6 0 0.0 1.6 0.00 0.00 0.00 88 1029.6
20220123154513 -6 0 0.0 1.6 0.00 0.00 0.00 89 1029.6
20220123153036 -7 0 0.0 3.2 0.00 0.00 0.00 89 1029.9
20220123151523 -7 0 0.0 1.6 0.00 0.00 0.00 87 1030.1
20220123150033 -7 0 0.0 0.0 0.00 0.00 0.00 87 1029.6
20220123144557 -7 0 0.0 0.0 0.00 0.00 0.00 89 1029.3
20220123143047 -7 0 0.0 3.2 0.00 0.00 0.00 90 1029.3
20220123141516 -7 0 0.0 0.0 0.00 0.00 0.00 88 1029.3
20220123140013 -7 0 0.0 3.2 0.00 0.00 0.00 89 1029.0
20220123134517 -7 0 0.0 1.6 0.00 0.00 0.00 88 1028.9
20220123133035 -7 0 0.0 0.0 0.00 0.00 0.00 88 1028.8
20220123131534 -7 0 0.0 3.2 0.00 0.00 0.00 88 1028.9
20220123130049 -7 0 0.0 3.2 0.00 0.00 0.00 88 1028.7
20220123124520 -7 0 0.0 0.0 0.00 0.00 0.00 88 1028.6
20220123123019 -7 0 0.0 0.0 0.00 0.00 0.00 88 1028.6
20220123121513 -6 0 0.0 0.0 0.00 0.00 0.00 87 1028.7
20220123120012 -6 0 0.0 0.0 0.00 0.00 0.00 89 1028.8
20220123114517 -6 0 0.0 0.0 0.00 0.00 0.00 87 1028.9
20220123113016 -6 0 0.0 0.0 0.00 0.00 0.00 88 1028.9
20220123111519 -6 0 0.0 0.0 0.00 0.00 0.00 89 1028.9
20220123110010 -6 0 0.0 0.0 0.00 0.00 0.00 88 1029.1
20220123104510 -6 0 0.0 0.0 0.00 0.00 0.00 87 1029.1